Surface/Precipitation History
10/22/2014 15:17  to  10/23/2014 15:17
Change End Date:
Date/Time
(MDT)
Sf
Temp Chem Water Layer Surface Precipitation
Sf Sub Frz Factor Pct Depth IcePct Cond Salin Type Intens Accum Rate
10/23/2014 15:10 Wet 48.0F 51F 32F 5 0% 0.00 in 0% 0 mhos 4 Rain Slight 0.11 in 0.0 iph
10/23/2014 15:09 Wet 48.2F 51F 32F 5 0% 0.00 in 0% 0 mhos 4 Rain Slight 0.11 in 0.0 iph
10/23/2014 14:59 Wet 48.9F 51F 32F 5 0% 0.00 in 0% 0 mhos 4 Rain Slight 0.11 in 0.0 iph
10/23/2014 14:51 Wet 49.5F 51F 32F 5 0% 0.00 in 0% 0 mhos 3 None None 0.11 in 0.0 iph
10/23/2014 14:49 Wet 49.6F 51F 32F 5 0% 0.00 in 0% 0 mhos 4 Rain Slight 0.11 in 0.0 iph
10/23/2014 14:40 Wet 50.4F 51F 32F 5 0% 0.00 in 0% 0 mhos 3 None None 0.11 in 0.0 iph
10/23/2014 14:39 Wet 50.4F 51F 32F 5 0% 0.00 in 0% 0 mhos 3 None None 0.11 in 0.0 iph
10/23/2014 14:29 Wet 51.3F 51F 32F 5 0% 0.00 in 0% 0 mhos 3 Rain Moderate 0.11 in 0.1 iph
10/23/2014 14:21 Wet 49.8F 51F 32F 5 0% 0.00 in 0% 0 mhos 2 Rain Slight 0.10 in 0.0 iph
10/23/2014 14:19 Wet 49.6F 51F 32F 5 0% 0.00 in 0% 0 mhos 3 Rain Slight 0.10 in 0.0 iph
10/23/2014 14:10 Wet 49.3F 51F 32F 5 0% 0.00 in 0% 0 mhos 3 Rain Slight 0.09 in 0.0 iph
10/23/2014 14:09 Wet 49.5F 51F 32F 5 0% 0.00 in 0% 0 mhos 3 Rain Slight 0.09 in 0.0 iph
10/23/2014 13:59 Wet 49.3F 51F 32F 5 0% 0.00 in 0% 0 mhos 3 Rain Slight 0.09 in 0.0 iph
10/23/2014 13:51 Wet 50.2F 51F 32F 5 0% 0.00 in 0% 0 mhos 4 Rain Slight 0.08 in 0.0 iph
10/23/2014 13:49 Wet 50.5F 51F 32F 5 0% 0.00 in 0% 0 mhos 4 Rain Slight 0.08 in 0.0 iph
Date/Time
(MDT)
Sf
Temp Chem Water Layer Surface Precipitation
Sf Sub Frz Factor Pct Depth IcePct Cond Salin Type Intens Accum Rate
10/23/2014 13:40 Wet 49.5F 51F 32F 5 0% 0.00 in 0% 0 mhos 5 Rain Slight 0.08 in 0.0 iph
10/23/2014 13:38 Wet 49.6F 51F 32F 5 0% 0.00 in 0% 0 mhos 5 Rain Slight 0.08 in 0.0 iph
10/23/2014 13:28 Wet 50.5F 51F 32F 5 0% 0.00 in 0% 0 mhos 5 Rain Slight 0.08 in 0.0 iph
10/23/2014 13:21 Wet 49.1F 51F 32F 5 0% 0.00 in 0% 0 mhos 5 Rain Slight 0.08 in 0.0 iph
10/23/2014 13:18 Wet 49.5F 51F 32F 5 0% 0.00 in 0% 0 mhos 5 Rain Slight 0.07 in 0.0 iph
10/23/2014 13:10 Wet 48.2F 51F 32F 5 0% 0.00 in 0% 0 mhos 6 Rain Slight 0.07 in 0.0 iph
10/23/2014 13:08 Wet 48.4F 51F 32F 5 0% 0.00 in 0% 0 mhos 6 Rain Slight 0.07 in 0.0 iph
10/23/2014 12:58 Wet 48.2F 51F 32F 5 0% 0.00 in 0% 0 mhos 14 Rain Slight 0.07 in 0.0 iph
10/23/2014 12:51 Wet 49.3F 51F 32F 5 0% 0.00 in 0% 0 mhos 14 Rain Slight 0.06 in 0.0 iph
10/23/2014 12:48 Wet 50.2F 51F 32F 5 0% 0.00 in 0% 0 mhos 19 Rain Slight 0.06 in 0.0 iph
10/23/2014 12:40 Wet 51.4F 51F 32F 5 0% 0.00 in 0% 0 mhos 7 Rain Slight 0.06 in 0.0 iph
10/23/2014 12:38 Wet 50.7F 51F 32F 5 0% 0.00 in 0% 0 mhos 15 Rain Slight 0.06 in 0.0 iph
10/23/2014 12:28 Wet 49.5F 51F 32F 5 0% 0.00 in 0% 0 mhos 7 Rain Slight 0.06 in 0.0 iph
10/23/2014 12:21 Wet 51.1F 51F 32F 5 0% 0.00 in 0% 0 mhos 6 None None 0.06 in 0.0 iph
10/23/2014 12:18 Wet 50.0F 51F 32F 5 0% 0.00 in 0% 0 mhos 6 None None 0.06 in 0.0 iph
Date/Time
(MDT)
Sf
Temp Chem Water Layer Surface Precipitation
Sf Sub Frz Factor Pct Depth IcePct Cond Salin Type Intens Accum Rate
10/23/2014 12:10 Wet 50.4F 51F 32F 5 0% 0.00 in 0% 0 mhos 6 Rain Slight 0.06 in 0.0 iph
10/23/2014 12:08 Wet 50.0F 51F 32F 5 0% 0.00 in 0% 0 mhos 6 Rain Slight 0.06 in 0.0 iph
10/23/2014 11:58 Wet 50.7F 51F 32F 5 0% 0.00 in 0% 0 mhos 5 Rain Slight 0.06 in 0.0 iph
10/23/2014 11:51 Wet 50.2F 51F 32F 5 0% 0.00 in 0% 0 mhos 6 Rain Slight 0.06 in 0.0 iph
10/23/2014 11:48 Wet 50.2F 51F 32F 5 0% 0.00 in 0% 0 mhos 5 Rain Slight 0.06 in 0.0 iph
10/23/2014 11:40 Wet 49.1F 51F 32F 5 0% 0.00 in 0% 0 mhos 4 Rain Slight 0.06 in 0.0 iph
10/23/2014 11:38 Wet 49.5F 51F 32F 5 0% 0.00 in 0% 0 mhos 3 Rain Slight 0.06 in 0.0 iph
10/23/2014 11:28 Wet 47.1F 51F 32F 5 0% 0.00 in 0% 0 mhos 3 Rain Slight 0.06 in 0.0 iph
10/23/2014 11:21 Wet 45.9F 51F 32F 5 0% 0.00 in 0% 0 mhos 5 Rain Slight 0.06 in 0.1 iph
10/23/2014 11:18 Wet 45.5F 51F 32F 5 0% 0.00 in 0% 0 mhos 6 Rain Moderate 0.05 in 0.1 iph
10/23/2014 11:11 Wet 46.8F 51F 32F 5 0% 0.00 in 0% 0 mhos 9 Rain Slight 0.04 in 0.0 iph
10/23/2014 11:08 Wet 47.8F 51F 32F 5 0% 0.00 in 0% 0 mhos 9 Rain Slight 0.04 in 0.0 iph
10/23/2014 10:58 Wet 45.1F 51F 32F 5 0% 0.00 in 0% 0 mhos 7 Rain Slight 0.04 in 0.0 iph
10/23/2014 10:51 Wet 44.8F 51F 32F 5 0% 0.00 in 0% 0 mhos 10 Rain Slight 0.04 in 0.0 iph
10/23/2014 10:48 Wet 44.6F 51F 32F 5 0% 0.00 in 0% 0 mhos 10 Rain Slight 0.04 in 0.0 iph
Date/Time
(MDT)
Sf
Temp Chem Water Layer Surface Precipitation
Sf Sub Frz Factor Pct Depth IcePct Cond Salin Type Intens Accum Rate
10/23/2014 10:40 Wet 44.4F 51F 32F 5 0% 0.00 in 0% 0 mhos 12 Rain Slight 0.04 in 0.0 iph
10/23/2014 10:38 Wet 44.4F 51F 32F 5 0% 0.00 in 0% 0 mhos 10 Rain Slight 0.04 in 0.0 iph
10/23/2014 10:28 Wet 44.6F 51F 32F 5 0% 0.00 in 0% 0 mhos 7 Rain Slight 0.04 in 0.0 iph
10/23/2014 10:21 Wet 44.4F 51F 32F 5 0% 0.00 in 0% 0 mhos 6 Rain Slight 0.04 in 0.0 iph
10/23/2014 10:18 Wet 44.4F 51F 32F 5 0% 0.00 in 0% 0 mhos 6 Rain Slight 0.04 in 0.0 iph
10/23/2014 10:10 Wet 44.2F 51F 32F 5 0% 0.00 in 0% 0 mhos 9 Rain Moderate 0.04 in 0.1 iph
10/23/2014 10:08 Wet 44.2F 51F 32F 5 0% 0.00 in 0% 0 mhos 9 Rain Slight 0.04 in 0.0 iph
10/23/2014 09:57 Wet 44.1F 51F 32F 5 0% 0.00 in 0% 0 mhos 10 Rain Moderate 0.03 in 0.0 iph
10/23/2014 09:51 Wet 43.9F 51F 32F 5 0% 0.00 in 0% 0 mhos 10 Rain Slight 0.03 in 0.0 iph
10/23/2014 09:47 Wet 43.9F 51F 32F 5 0% 0.00 in 0% 0 mhos 9 Rain Slight 0.03 in 0.0 iph
10/23/2014 09:40 Wet 43.5F 51F 32F 5 0% 0.00 in 0% 0 mhos 7 Rain Slight 0.03 in 0.0 iph
10/23/2014 09:37 Wet 43.5F 51F 32F 5 0% 0.00 in 0% 0 mhos 6 Rain Slight 0.03 in 0.0 iph
10/23/2014 09:27 Wet 43.3F 51F 32F 5 0% 0.00 in 0% 0 mhos 8 Rain Slight 0.03 in 0.0 iph
10/23/2014 09:21 Wet 43.2F 51F 32F 5 0% 0.00 in 0% 0 mhos 8 Rain Moderate 0.03 in 0.0 iph
10/23/2014 09:17 Wet 43.2F 51F 32F 5 0% 0.00 in 0% 0 mhos 7 Rain Moderate 0.03 in 0.0 iph
Date/Time
(MDT)
Sf
Temp Chem Water Layer Surface Precipitation
Sf Sub Frz Factor Pct Depth IcePct Cond Salin Type Intens Accum Rate
10/23/2014 09:10 Wet 43.3F 51F 32F 5 0% 0.00 in 0% 0 mhos 5 Rain Moderate 0.02 in 0.0 iph
10/23/2014 09:07 Wet 43.2F 51F 32F 5 0% 0.00 in 0% 0 mhos 5 Rain Moderate 0.02 in 0.0 iph
10/23/2014 08:57 Wet 43.3F 51F 32F 5 0% 0.00 in 0% 0 mhos 10 Rain Slight 0.02 in 0.0 iph
10/23/2014 08:51 Wet 43.2F 51F 32F 5 0% 0.00 in 0% 0 mhos 11 Rain Slight 0.02 in 0.0 iph
10/23/2014 08:47 Wet 43.2F 51F 32F 5 0% 0.00 in 0% 0 mhos 11 Rain Slight 0.02 in 0.0 iph
10/23/2014 08:40 Wet 43.2F 51F 32F 5 0% 0.00 in 0% 0 mhos 10 Rain Slight 0.02 in 0.0 iph
10/23/2014 08:37 Wet 43.2F 51F 32F 5 0% 0.00 in 0% 0 mhos 10 Rain Moderate 0.02 in 0.0 iph
10/23/2014 08:27 Wet 43.2F 51F 32F 5 0% 0.00 in 0% 0 mhos 9 Rain Moderate 0.02 in 0.0 iph
10/23/2014 08:21 Wet 43.2F 51F 32F 5 0% 0.00 in 0% 0 mhos 8 Rain Slight 0.02 in 0.0 iph
10/23/2014 08:17 Wet 43.3F 51F 32F 10 0% 0.00 in 0% 0 mhos 7 Rain Moderate 0.01 in 0.0 iph
10/23/2014 08:10 Wet 43.5F 51F 32F 5 0% 0.00 in 0% 0 mhos 7 Rain Moderate 0.01 in 0.0 iph
10/23/2014 08:07 Wet 43.5F 51F 32F 5 0% 0.00 in 0% 0 mhos 6 Rain Moderate 0.01 in 0.0 iph
10/23/2014 07:57 Wet 43.9F 51F 32F 5 0% 0.00 in 0% 0 mhos 4 Rain Moderate 0.01 in 0.0 iph
10/23/2014 07:51 Wet 44.2F 51F 32F 5 0% 0.00 in 0% 0 mhos 2 Rain Moderate 0.00 in 0.0 iph
10/23/2014 07:47 Wet 44.2F 51F 32F 5 0% 0.00 in 0% 0 mhos 1 Rain Moderate 0.00 in 0.0 iph
Date/Time
(MDT)
Sf
Temp Chem Water Layer Surface Precipitation
Sf Sub Frz Factor Pct Depth IcePct Cond Salin Type Intens Accum Rate
10/23/2014 07:40 Dry 45.5F 51F - - - - - 0 mhos 0 None None 0.00 in 0.0 iph
10/23/2014 07:37 Dry 45.7F 51F - - - - - 0 mhos 0 None None 0.00 in 0.0 iph
10/23/2014 07:27 Dry 45.9F 51F - - - - - 0 mhos 0 None None 0.00 in 0.0 iph
10/23/2014 07:21 Dry 45.9F 51F - - - - - 0 mhos 0 None None 0.00 in 0.0 iph
10/23/2014 07:17 Dry 45.9F 51F - - - - - 0 mhos 0 None None 0.00 in 0.0 iph
10/23/2014 07:10 Dry 46.0F 51F - - - - - 0 mhos 0 None None 0.00 in 0.0 iph
10/23/2014 07:07 Dry 46.0F 51F - - - - - 0 mhos 0 None None 0.00 in 0.0 iph
10/23/2014 06:57 Dry 46.0F 51F - - - - - 0 mhos 0 None None 0.00 in 0.0 iph
10/23/2014 06:51 Dry 45.9F 51F - - - - - 0 mhos 0 None None 0.00 in 0.0 iph
10/23/2014 06:47 Dry 46.0F 51F - - - - - 0 mhos 0 None None 0.00 in 0.0 iph
10/23/2014 06:40 Dry 46.0F 51F - - - - - 0 mhos 0 None None 0.00 in 0.0 iph
10/23/2014 06:37 Dry 46.2F 51F - - - - - 0 mhos 0 None None 0.00 in 0.0 iph
10/23/2014 06:26 Dry 46.4F 51F - - - - - 0 mhos 0 None None 0.00 in 0.0 iph
10/23/2014 06:21 Dry 46.4F 51F - - - - - 0 mhos 0 None None 0.00 in 0.0 iph
10/23/2014 06:16 Dry 46.4F 51F - - - - - 0 mhos 0 None None 0.00 in 0.0 iph
Date/Time
(MDT)
Sf
Temp Chem Water Layer Surface Precipitation
Sf Sub Frz Factor Pct Depth IcePct Cond Salin Type Intens Accum Rate
10/23/2014 06:11 Dry 46.4F 51F - - - - - 0 mhos 0 None None 0.00 in 0.0 iph
10/23/2014 06:06 Dry 46.2F 51F - - - - - 0 mhos 0 None None 0.00 in 0.0 iph
10/23/2014 05:56 Dry 46.4F 51F - - - - - 0 mhos 0 None None 0.00 in 0.0 iph
10/23/2014 05:51 Dry 46.4F 51F - - - - - 0 mhos 0 None None 0.00 in 0.0 iph
10/23/2014 05:46 Dry 46.4F 51F - - - - - 0 mhos 0 None None 0.00 in 0.0 iph
10/23/2014 05:40 Dry 46.2F 51F - - - - - 0 mhos 0 None None 0.00 in 0.0 iph
10/23/2014 05:36 Dry 45.9F 51F - - - - - 0 mhos 0 None None 0.00 in 0.0 iph
10/23/2014 05:26 Dry 45.7F 51F - - - - - 0 mhos 0 Rain Slight 0.00 in 0.0 iph
10/23/2014 05:21 Dry 46.0F 51F - - - - - 0 mhos 0 Rain Slight 0.00 in 0.0 iph
10/23/2014 05:16 Dry 46.6F 51F - - - - - 0 mhos 0 None None 0.00 in 0.0 iph
10/23/2014 05:10 Dry 46.9F 51F - - - - - 0 mhos 0 None None 0.00 in 0.0 iph
10/23/2014 05:06 Dry 46.9F 51F - - - - - 0 mhos 0 None None 0.00 in 0.0 iph
10/23/2014 04:56 Dry 46.9F 51F - - - - - 0 mhos 0 None None 0.00 in 0.0 iph
10/23/2014 04:51 Dry 46.9F 51F - - - - - 0 mhos 0 None None 0.00 in 0.0 iph
10/23/2014 04:46 Dry 47.1F 51F - - - - - 0 mhos 0 None None 0.00 in 0.0 iph
Date/Time
(MDT)
Sf
Temp Chem Water Layer Surface Precipitation
Sf Sub Frz Factor Pct Depth IcePct Cond Salin Type Intens Accum Rate
10/23/2014 04:40 Dry 46.9F 51F - - - - - 0 mhos 0 None None 0.00 in 0.0 iph
10/23/2014 04:36 Dry 46.9F 51F - - - - - 0 mhos 0 None None 0.00 in 0.0 iph
10/23/2014 04:26 Dry 47.1F 51F - - - - - 0 mhos 0 None None 0.00 in 0.0 iph
10/23/2014 04:21 Dry 47.1F 51F - - - - - 0 mhos 0 None None 0.00 in 0.0 iph
10/23/2014 04:16 Dry 47.1F 51F - - - - - 0 mhos 0 None None 0.00 in 0.0 iph
10/23/2014 04:10 Dry 47.1F 51F - - - - - 0 mhos 0 None None 0.00 in 0.0 iph
10/23/2014 04:06 Dry 47.3F 51F - - - - - 0 mhos 0 None None 0.00 in 0.0 iph
10/23/2014 03:56 Dry 47.3F 51F - - - - - 0 mhos 0 None None 0.00 in 0.0 iph
10/23/2014 03:51 Dry 47.3F 51F - - - - - 0 mhos 0 None None 0.00 in 0.0 iph
10/23/2014 03:46 Dry 47.5F 51F - - - - - 0 mhos 0 None None 0.00 in 0.0 iph
10/23/2014 03:40 Dry 47.5F 51F - - - - - 0 mhos 0 None None 0.00 in 0.0 iph
10/23/2014 03:36 Dry 47.8F 51F - - - - - 0 mhos 0 None None 0.00 in 0.0 iph
10/23/2014 03:26 Dry 47.8F 51F - - - - - 0 mhos 0 None None 0.00 in 0.0 iph
10/23/2014 03:21 Dry 48.0F 51F - - - - - 0 mhos 0 None None 0.00 in 0.0 iph
10/23/2014 03:16 Dry 48.0F 51F - - - - - 0 mhos 0 None None 0.00 in 0.0 iph
Date/Time
(MDT)
Sf
Temp Chem Water Layer Surface Precipitation
Sf Sub Frz Factor Pct Depth IcePct Cond Salin Type Intens Accum Rate
10/23/2014 03:11 Dry 48.0F 51F - - - - - 0 mhos 0 None None 0.00 in 0.0 iph
10/23/2014 03:06 Dry 48.0F 51F - - - - - 0 mhos 0 None None 0.00 in 0.0 iph
10/23/2014 02:55 Dry 48.0F 51F - - - - - 0 mhos 0 None None 0.00 in 0.0 iph
10/23/2014 02:51 Dry 48.0F 51F - - - - - 0 mhos 0 None None 0.00 in 0.0 iph
10/23/2014 02:45 Dry 48.0F 51F - - - - - 0 mhos 0 None None 0.00 in 0.0 iph
10/23/2014 02:40 Dry 47.8F 51F - - - - - 0 mhos 0 None None 0.00 in 0.0 iph
10/23/2014 02:35 Dry 47.8F 51F - - - - - 0 mhos 0 None None 0.00 in 0.0 iph
10/23/2014 02:25 Dry 47.8F 51F - - - - - 0 mhos 0 None None 0.00 in 0.0 iph
10/23/2014 02:21 Dry 47.7F 51F - - - - - 0 mhos 0 None None 0.00 in 0.0 iph
10/23/2014 02:15 Dry 47.7F 51F - - - - - 0 mhos 0 None None 0.00 in 0.0 iph
10/23/2014 02:11 Dry 47.8F 51F - - - - - 0 mhos 0 None None 0.00 in 0.0 iph
10/23/2014 02:05 Dry 47.8F 51F - - - - - 0 mhos 0 None None 0.00 in 0.0 iph
10/23/2014 01:55 Dry 47.8F 52F - - - - - 0 mhos 0 None None 0.00 in 0.0 iph
10/23/2014 01:51 Dry 47.8F 51F - - - - - 0 mhos 0 None None 0.00 in 0.0 iph
10/23/2014 01:45 Dry 47.7F 51F - - - - - 0 mhos 0 None None 0.00 in 0.0 iph
Date/Time
(MDT)
Sf
Temp Chem Water Layer Surface Precipitation
Sf Sub Frz Factor Pct Depth IcePct Cond Salin Type Intens Accum Rate
10/23/2014 01:40 Dry 47.5F 52F - - - - - 0 mhos 0 None None 0.00 in 0.0 iph
10/23/2014 01:35 Dry 47.5F 51F - - - - - 0 mhos 0 None None 0.00 in 0.0 iph
10/23/2014 01:25 Dry 47.5F 51F - - - - - 0 mhos 0 None None 0.00 in 0.0 iph
10/23/2014 01:21 Dry 47.3F 51F - - - - - 0 mhos 0 None None 0.00 in 0.0 iph
10/23/2014 01:15 Dry 47.5F 51F - - - - - 0 mhos 0 None None 0.00 in 0.0 iph
10/23/2014 01:10 Dry 47.3F 51F - - - - - 0 mhos 0 None None 0.00 in 0.0 iph
10/23/2014 01:05 Dry 47.3F 51F - - - - - 0 mhos 0 None None 0.00 in 0.0 iph
10/23/2014 00:55 Dry 47.1F 51F - - - - - 0 mhos 0 None None 0.00 in 0.0 iph
10/23/2014 00:51 Dry 47.3F 52F - - - - - 0 mhos 0 None None 0.00 in 0.0 iph
10/23/2014 00:45 Dry 47.1F 51F - - - - - 0 mhos 0 None None 0.00 in 0.0 iph
10/23/2014 00:35 Dry 46.9F 51F - - - - - 0 mhos 0 None None 0.00 in 0.0 iph
10/23/2014 00:34 Dry 46.9F 51F - - - - - 0 mhos 0 None None 0.00 in 0.0 iph
10/23/2014 00:25 Dry 46.9F 52F - - - - - 0 mhos 0 None None 0.00 in 0.0 iph
10/23/2014 00:15 Dry 46.9F 51F - - - - - 0 mhos 0 None None 0.00 in 0.0 iph
10/23/2014 00:11 Dry 46.8F 52F - - - - - 0 mhos 0 None None 0.00 in 0.0 iph
Date/Time
(MDT)
Sf
Temp Chem Water Layer Surface Precipitation
Sf Sub Frz Factor Pct Depth IcePct Cond Salin Type Intens Accum Rate
10/23/2014 00:05 Dry 46.9F 52F - - - - - 0 mhos 0 None None 0.00 in 0.0 iph
10/22/2014 23:57 Dry 46.8F 52F - - - - - 0 mhos 0 None None 0.00 in 0.0 iph
10/22/2014 23:55 Dry 46.8F 52F - - - - - 0 mhos 0 None None 0.00 in 0.0 iph
10/22/2014 23:45 Dry 46.6F 52F - - - - - 0 mhos 0 None None 0.00 in 0.0 iph
10/22/2014 23:41 Dry 46.6F 51F - - - - - 0 mhos 0 None None 0.00 in 0.0 iph
10/22/2014 23:35 Dry 46.2F 52F - - - - - 0 mhos 0 None None 0.00 in 0.0 iph
10/22/2014 23:25 Dry 46.0F 52F - - - - - 0 mhos 0 None None 0.00 in 0.0 iph
10/22/2014 23:25 Dry 45.9F 52F - - - - - 0 mhos 0 None None 0.00 in 0.0 iph
10/22/2014 23:14 Dry 45.7F 52F - - - - - 0 mhos 0 None None 0.00 in 0.0 iph
10/22/2014 23:11 Dry 45.7F 52F - - - - - 0 mhos 0 None None 0.00 in 0.0 iph
10/22/2014 23:04 Dry 45.7F 52F - - - - - 0 mhos 0 None None 0.00 in 0.0 iph
10/22/2014 22:54 Dry 45.7F 52F - - - - - 0 mhos 0 None None 0.00 in 0.0 iph
10/22/2014 22:51 Dry 45.7F 52F - - - - - 0 mhos 0 None None 0.00 in 0.0 iph
10/22/2014 22:44 Dry 45.9F 52F - - - - - 0 mhos 0 None None 0.00 in 0.0 iph
10/22/2014 22:40 Dry 45.7F 52F - - - - - 0 mhos 0 None None 0.00 in 0.0 iph
Date/Time
(MDT)
Sf
Temp Chem Water Layer Surface Precipitation
Sf Sub Frz Factor Pct Depth IcePct Cond Salin Type Intens Accum Rate
10/22/2014 22:34 Dry 45.7F 52F - - - - - 0 mhos 0 None None 0.00 in 0.0 iph
10/22/2014 22:24 Dry 45.7F 52F - - - - - 0 mhos 0 None None 0.00 in 0.0 iph
10/22/2014 22:21 Dry 45.7F 51F - - - - - 0 mhos 0 None None 0.00 in 0.0 iph
10/22/2014 22:14 Dry 45.9F 52F - - - - - 0 mhos 0 None None 0.00 in 0.0 iph
10/22/2014 22:11 Dry 45.7F 52F - - - - - 0 mhos 0 None None 0.00 in 0.0 iph
10/22/2014 22:04 Dry 45.9F 52F - - - - - 0 mhos 0 None None 0.00 in 0.0 iph
10/22/2014 21:54 Dry 46.0F 52F - - - - - 0 mhos 0 None None 0.00 in 0.0 iph
10/22/2014 21:51 Dry 46.0F 52F - - - - - 0 mhos 0 None None 0.00 in 0.0 iph
10/22/2014 21:44 Dry 45.7F 52F - - - - - 0 mhos 0 None None 0.00 in 0.0 iph
10/22/2014 21:40 Dry 46.0F 52F - - - - - 0 mhos 0 None None 0.00 in 0.0 iph
10/22/2014 21:34 Dry 46.2F 52F - - - - - 0 mhos 0 None None 0.00 in 0.0 iph
10/22/2014 21:24 Dry 46.4F 52F - - - - - 0 mhos 0 None None 0.00 in 0.0 iph
10/22/2014 21:21 Dry 46.4F 51F - - - - - 0 mhos 0 None None 0.00 in 0.0 iph
10/22/2014 21:14 Dry 46.2F 52F - - - - - 0 mhos 0 None None 0.00 in 0.0 iph
10/22/2014 21:10 Dry 46.4F 51F - - - - - 0 mhos 0 None None 0.00 in 0.0 iph
Date/Time
(MDT)
Sf
Temp Chem Water Layer Surface Precipitation
Sf Sub Frz Factor Pct Depth IcePct Cond Salin Type Intens Accum Rate
10/22/2014 21:04 Dry 46.0F 51F - - - - - 0 mhos 0 None None 0.00 in 0.0 iph
10/22/2014 20:54 Dry 46.0F 52F - - - - - 0 mhos 0 None None 0.00 in 0.0 iph
10/22/2014 20:51 Dry 46.0F 52F - - - - - 0 mhos 0 None None 0.00 in 0.0 iph
10/22/2014 20:44 Dry 46.0F 51F - - - - - 0 mhos 0 None None 0.00 in 0.0 iph
10/22/2014 20:40 Dry 46.2F 51F - - - - - 0 mhos 0 None None 0.00 in 0.0 iph
10/22/2014 20:34 Dry 46.0F 52F - - - - - 0 mhos 0 None None 0.00 in 0.0 iph
10/22/2014 20:24 Dry 46.2F 51F - - - - - 0 mhos 0 None None 0.00 in 0.0 iph
10/22/2014 20:21 Dry 46.4F 51F - - - - - 0 mhos 0 None None 0.00 in 0.0 iph
10/22/2014 20:14 Dry 46.6F 51F - - - - - 0 mhos 0 None None 0.00 in 0.0 iph
10/22/2014 20:10 Dry 46.6F 51F - - - - - 0 mhos 0 None None 0.00 in 0.0 iph
10/22/2014 20:04 Dry 46.6F 51F - - - - - 0 mhos 0 None None 0.00 in 0.0 iph
10/22/2014 19:54 Dry 46.9F 51F - - - - - 0 mhos 0 None None 0.00 in 0.0 iph
10/22/2014 19:51 Dry 46.9F 51F - - - - - 0 mhos 0 None None 0.00 in 0.0 iph
10/22/2014 19:43 Dry 46.9F 51F - - - - - 0 mhos 0 None None 0.00 in 0.0 iph
10/22/2014 19:40 Dry 46.9F 51F - - - - - 0 mhos 0 None None 0.00 in 0.0 iph
Date/Time
(MDT)
Sf
Temp Chem Water Layer Surface Precipitation
Sf Sub Frz Factor Pct Depth IcePct Cond Salin Type Intens Accum Rate
10/22/2014 19:33 Dry 47.1F 51F - - - - - 0 mhos 0 None None 0.00 in 0.0 iph
10/22/2014 19:23 Dry 47.3F 51F - - - - - 0 mhos 0 None None 0.00 in 0.0 iph
10/22/2014 19:21 Dry 47.5F 51F - - - - - 0 mhos 0 None None 0.00 in 0.0 iph
10/22/2014 19:13 Dry 47.8F 51F - - - - - 0 mhos 0 None None 0.00 in 0.0 iph
10/22/2014 19:11 Dry 48.0F 51F - - - - - 0 mhos 0 None None 0.00 in 0.0 iph
10/22/2014 19:03 Dry 48.2F 51F - - - - - 0 mhos 0 None None 0.00 in 0.0 iph
10/22/2014 18:53 Dry 48.4F 51F - - - - - 0 mhos 0 None None 0.00 in 0.0 iph
10/22/2014 18:51 Dry 48.6F 51F - - - - - 0 mhos 0 None None 0.00 in 0.0 iph
10/22/2014 18:43 Dry 48.9F 51F - - - - - 0 mhos 0 None None 0.00 in 0.0 iph
10/22/2014 18:40 Dry 48.9F 51F - - - - - 0 mhos 0 None None 0.00 in 0.0 iph
10/22/2014 18:33 Dry 49.3F 51F - - - - - 0 mhos 0 None None 0.00 in 0.0 iph
10/22/2014 18:23 Dry 50.2F 51F - - - - - 0 mhos 0 None None 0.00 in 0.0 iph
10/22/2014 18:21 Dry 50.4F 51F - - - - - 0 mhos 0 None None 0.00 in 0.0 iph
10/22/2014 18:13 Dry 50.9F 51F - - - - - 0 mhos 0 None None 0.00 in 0.0 iph
10/22/2014 18:10 Dry 51.4F 51F - - - - - 0 mhos 0 None None 0.00 in 0.0 iph
Date/Time
(MDT)
Sf
Temp Chem Water Layer Surface Precipitation
Sf Sub Frz Factor Pct Depth IcePct Cond Salin Type Intens Accum Rate
10/22/2014 18:03 Dry 52.0F 51F - - - - - 0 mhos 0 None None 0.00 in 0.0 iph
10/22/2014 17:53 Dry 52.7F 51F - - - - - 0 mhos 0 None None 0.00 in 0.0 iph
10/22/2014 17:51 Dry 52.9F 51F - - - - - 0 mhos 0 None None 0.00 in 0.0 iph
10/22/2014 17:43 Dry 53.4F 51F - - - - - 0 mhos 0 None None 0.00 in 0.0 iph
10/22/2014 17:40 Dry 53.4F 51F - - - - - 0 mhos 0 None None 0.00 in 0.0 iph
10/22/2014 17:33 Dry 54.1F 51F - - - - - 0 mhos 0 None None 0.00 in 0.0 iph
10/22/2014 17:23 Dry 54.5F 51F - - - - - 0 mhos 0 None None 0.00 in 0.0 iph
10/22/2014 17:21 Dry 54.3F 51F - - - - - 0 mhos 0 None None 0.00 in 0.0 iph
10/22/2014 17:13 Dry 54.9F 51F - - - - - 0 mhos 0 None None 0.00 in 0.0 iph
10/22/2014 17:11 Dry 55.0F 51F - - - - - 0 mhos 0 None None 0.00 in 0.0 iph
10/22/2014 17:03 Dry 55.9F 51F - - - - - 0 mhos 0 None None 0.00 in 0.0 iph
10/22/2014 16:53 Dry 57.6F 51F - - - - - 0 mhos 0 None None 0.00 in 0.0 iph
10/22/2014 16:51 Dry 57.7F 51F - - - - - 0 mhos 0 None None 0.00 in 0.0 iph
10/22/2014 16:43 Dry 58.5F 51F - - - - - 0 mhos 0 None None 0.00 in 0.0 iph
10/22/2014 16:40 Dry 58.3F 51F - - - - - 0 mhos 0 None None 0.00 in 0.0 iph
Date/Time
(MDT)
Sf
Temp Chem Water Layer Surface Precipitation
Sf Sub Frz Factor Pct Depth IcePct Cond Salin Type Intens Accum Rate
10/22/2014 16:33 Dry 58.6F 51F - - - - - 0 mhos 0 None None 0.00 in 0.0 iph
10/22/2014 16:22 Dry 58.5F 51F - - - - - 0 mhos 0 None None 0.00 in 0.0 iph
10/22/2014 16:21 Dry 58.6F 51F - - - - - 0 mhos 0 None None 0.00 in 0.0 iph
10/22/2014 16:12 Dry 56.5F 51F - - - - - 0 mhos 0 None None 0.00 in 0.0 iph
10/22/2014 16:10 Dry 55.8F 51F - - - - - 0 mhos 0 None None 0.00 in 0.0 iph
10/22/2014 16:02 Dry 55.9F 51F - - - - - 0 mhos 0 None None 0.00 in 0.0 iph
10/22/2014 15:52 Dry 57.0F 51F - - - - - 0 mhos 0 None None 0.00 in 0.0 iph
10/22/2014 15:51 Dry 57.2F 51F - - - - - 0 mhos 0 None None 0.00 in 0.0 iph
10/22/2014 15:42 Dry 57.0F 51F - - - - - 0 mhos 0 None None 0.00 in 0.0 iph
10/22/2014 15:41 Dry 56.5F 51F - - - - - 0 mhos 0 None None 0.00 in 0.0 iph
10/22/2014 15:32 Dry 52.5F 51F - - - - - 0 mhos 0 None None 0.00 in 0.0 iph
10/22/2014 15:22 Dry 52.0F 51F - - - - - 0 mhos 0 None None 0.00 in 0.0 iph
10/22/2014 15:21 Dry 52.0F 51F - - - - - 0 mhos 0 None None 0.00 in 0.0 iph
Change End Date:
Copyright © 1998-2005 Surface Systems, Inc.
All Rights Reserved
Send comments about the data to:
SCAN Web ® is a registered trademark of Surface Systems, Inc.
SCAN Web Version 5.6